Location: York
(31.8935°S, 116.7682°E)
Time: 08:21:21
(UTC+08:00)

X-37B - Pass Details

Date: 22 May 2021
Orbit: 386 x 389 km, 45.0° (Epoch: 23 June)

Event Time Altitude Azimuth Distance (km) Brightness Sun altitude
Exits shadow 06:09:45 16° 241° (WSW) 1,126 2.3 -10.6°
Maximum altitude 06:12:12 71° 323° (NW) 417 0.6 -10.1°
Drops below altitude 10° 06:15:23 10° 47° (NE) 1,415 4.6 -9.4°
Sets 06:17:27 0° 49° (NE) 2,264 5.9 -9.0°
